Time,TemperatureF,DewpointF,PressureIn,WindDirection,WindDirectionDegrees,WindSpeedMPH,WindSpeedGustMPH,Humidity,HourlyPrecipIn,Conditions,Clouds,dailyrainin,SolarRadiationWatts/m^2,SoftwareType,DateUTC
2013-07-09 00:11:00,47.0,44.0,-100.00,SE,132,1.0,9.0,89,0.00,,,0.00,3.000000,,2013-07-09 08:11:00,
2013-07-09 00:22:00,47.0,44.0,-100.00,SE,132,1.0,9.0,89,0.00,,,0.00,3.000000,,2013-07-09 08:22:00,
2013-07-09 00:33:00,47.0,44.0,-100.00,SE,132,1.0,9.0,89,0.00,,,0.00,3.000000,,2013-07-09 08:33:00,
2013-07-09 00:43:00,47.0,44.0,-100.00,SE,132,1.0,9.0,89,0.00,,,0.00,3.000000,,2013-07-09 08:43:00,
2013-07-09 00:52:00,45.0,43.0,-100.00,ESE,116,1.0,8.0,91,0.00,,,0.00,0.000000,,2013-07-09 08:52:00,
2013-07-09 01:11:00,45.0,43.0,-100.00,ESE,116,1.0,8.0,91,0.00,,,0.00,0.000000,,2013-07-09 09:11:00,
2013-07-09 01:22:00,45.0,43.0,-100.00,ESE,116,1.0,8.0,91,0.00,,,0.00,0.000000,,2013-07-09 09:22:00,
2013-07-09 01:34:00,45.0,43.0,-100.00,ESE,116,1.0,8.0,91,0.00,,,0.00,0.000000,,2013-07-09 09:34:00,
2013-07-09 01:42:00,45.0,43.0,-100.00,ESE,116,1.0,8.0,91,0.00,,,0.00,0.000000,,2013-07-09 09:42:00,
2013-07-09 01:52:00,44.0,42.0,-100.00,ESE,110,1.0,7.0,94,0.00,,,0.00,0.000000,,2013-07-09 09:52:00,
2013-07-09 02:11:00,44.0,42.0,-100.00,ESE,110,1.0,7.0,94,0.00,,,0.00,0.000000,,2013-07-09 10:11:00,
2013-07-09 02:22:00,44.0,42.0,-100.00,ESE,110,1.0,7.0,94,0.00,,,0.00,0.000000,,2013-07-09 10:22:00,
2013-07-09 02:33:00,44.0,42.0,-100.00,ESE,110,1.0,7.0,94,0.00,,,0.00,0.000000,,2013-07-09 10:33:00,
2013-07-09 02:42:00,44.0,42.0,-100.00,ESE,110,1.0,7.0,94,0.00,,,0.00,0.000000,,2013-07-09 10:42:00,
2013-07-09 02:52:00,44.0,43.0,-100.00,ESE,121,1.0,8.0,95,0.00,,,0.00,0.000000,,2013-07-09 10:52:00,
2013-07-09 03:11:00,44.0,43.0,-100.00,ESE,121,1.0,8.0,95,0.00,,,0.00,0.000000,,2013-07-09 11:11:00,
2013-07-09 03:22:00,44.0,43.0,-100.00,ESE,121,1.0,8.0,95,0.00,,,0.00,0.000000,,2013-07-09 11:22:00,
2013-07-09 03:33:00,44.0,43.0,-100.00,ESE,121,1.0,8.0,95,0.00,,,0.00,0.000000,,2013-07-09 11:33:00,
2013-07-09 03:42:00,44.0,43.0,-100.00,ESE,121,1.0,8.0,95,0.00,,,0.00,0.000000,,2013-07-09 11:42:00,
2013-07-09 03:52:00,44.0,43.0,-100.00,ESE,111,1.0,5.0,95,0.00,,,0.00,0.000000,,2013-07-09 11:52:00,
2013-07-09 04:11:00,44.0,43.0,-100.00,ESE,111,1.0,5.0,95,0.00,,,0.00,0.000000,,2013-07-09 12:11:00,
2013-07-09 04:22:00,44.0,43.0,-100.00,ESE,111,1.0,5.0,95,0.00,,,0.00,0.000000,,2013-07-09 12:22:00,
2013-07-09 04:33:00,44.0,43.0,-100.00,ESE,111,1.0,5.0,95,0.00,,,0.00,0.000000,,2013-07-09 12:33:00,
2013-07-09 04:43:00,44.0,43.0,-100.00,ESE,111,1.0,5.0,95,0.00,,,0.00,0.000000,,2013-07-09 12:43:00,
2013-07-09 04:52:00,43.0,42.0,-100.00,ESE,106,1.0,6.0,96,0.00,,,0.00,0.000000,,2013-07-09 12:52:00,
2013-07-09 05:21:00,43.0,42.0,-100.00,ESE,106,1.0,6.0,96,0.00,,,0.00,0.000000,,2013-07-09 13:21:00,
2013-07-09 05:33:00,43.0,42.0,-100.00,ESE,106,1.0,6.0,96,0.00,,,0.00,0.000000,,2013-07-09 13:33:00,
2013-07-09 05:43:00,43.0,42.0,-100.00,ESE,106,1.0,6.0,96,0.00,,,0.00,0.000000,,2013-07-09 13:43:00,
2013-07-09 05:52:00,44.0,43.0,-100.00,East,91,1.0,5.0,96,0.00,,,0.00,6.000000,,2013-07-09 13:52:00,
2013-07-09 06:22:00,44.0,43.0,-100.00,East,91,1.0,5.0,96,0.00,,,0.00,6.000000,,2013-07-09 14:22:00,
2013-07-09 06:34:00,44.0,43.0,-100.00,East,91,1.0,5.0,96,0.00,,,0.00,6.000000,,2013-07-09 14:34:00,
2013-07-09 06:43:00,44.0,43.0,-100.00,East,91,1.0,5.0,96,0.00,,,0.00,6.000000,,2013-07-09 14:43:00,
2013-07-09 06:52:00,44.0,43.0,-100.00,ESE,105,0.0,5.0,97,0.00,,,0.00,27.000000,,2013-07-09 14:52:00,
2013-07-09 07:22:00,44.0,43.0,-100.00,ESE,105,0.0,5.0,97,0.00,,,0.00,27.000000,,2013-07-09 15:22:00,
2013-07-09 07:33:00,44.0,43.0,-100.00,ESE,105,0.0,5.0,97,0.00,,,0.00,27.000000,,2013-07-09 15:33:00,
2013-07-09 07:43:00,44.0,43.0,-100.00,ESE,105,0.0,5.0,97,0.00,,,0.00,27.000000,,2013-07-09 15:43:00,
2013-07-09 07:52:00,48.0,46.0,-100.00,South,190,0.0,3.0,94,0.00,,,0.00,71.000000,,2013-07-09 15:52:00,
2013-07-09 08:22:00,48.0,46.0,-100.00,South,190,0.0,3.0,94,0.00,,,0.00,71.000000,,2013-07-09 16:22:00,
2013-07-09 08:33:00,48.0,46.0,-100.00,South,190,0.0,3.0,94,0.00,,,0.00,71.000000,,2013-07-09 16:33:00,
2013-07-09 08:43:00,48.0,46.0,-100.00,South,190,0.0,3.0,94,0.00,,,0.00,71.000000,,2013-07-09 16:43:00,
2013-07-09 08:52:00,53.0,47.0,-100.00,SW,222,1.0,5.0,80,0.00,,,0.00,68.000000,,2013-07-09 16:52:00,
2013-07-09 09:22:00,53.0,47.0,-100.00,SW,222,1.0,5.0,80,0.00,,,0.00,68.000000,,2013-07-09 17:22:00,
2013-07-09 09:35:00,53.0,47.0,-100.00,SW,222,1.0,5.0,80,0.00,,,0.00,68.000000,,2013-07-09 17:35:00,
2013-07-09 09:45:00,53.0,47.0,-100.00,SW,222,1.0,5.0,80,0.00,,,0.00,68.000000,,2013-07-09 17:45:00,
2013-07-09 09:52:00,58.0,48.0,-100.00,WSW,239,1.0,6.0,70,0.00,,,0.00,270.000000,,2013-07-09 17:52:00,
2013-07-09 10:22:00,58.0,48.0,-100.00,WSW,239,1.0,6.0,70,0.00,,,0.00,270.000000,,2013-07-09 18:22:00,
2013-07-09 10:32:00,58.0,48.0,-100.00,WSW,239,1.0,6.0,70,0.00,,,0.00,270.000000,,2013-07-09 18:32:00,
2013-07-09 10:42:00,58.0,48.0,-100.00,WSW,239,1.0,6.0,70,0.00,,,0.00,270.000000,,2013-07-09 18:42:00,
2013-07-09 17:52:00,65.0,48.0,-100.00,SW,218,2.0,11.0,55,-99.99,,,0.00,462.000000,,2013-07-10 01:52:00,
2013-07-09 18:11:00,65.0,48.0,-100.00,SW,218,2.0,11.0,55,-99.99,,,0.00,462.000000,,2013-07-10 02:11:00,
2013-07-09 18:34:00,65.0,48.0,-100.00,SW,218,2.0,11.0,55,-99.99,,,0.00,462.000000,,2013-07-10 02:34:00,
2013-07-09 18:52:00,63.0,47.0,-100.00,SSW,209,2.0,10.0,55,0.00,,,0.00,165.000000,,2013-07-10 02:52:00,
2013-07-09 19:11:00,63.0,47.0,-100.00,SSW,209,2.0,10.0,55,0.00,,,0.00,165.000000,,2013-07-10 03:11:00,
2013-07-09 19:22:00,63.0,47.0,-100.00,SSW,209,2.0,10.0,55,0.00,,,0.00,165.000000,,2013-07-10 03:22:00,
2013-07-09 19:32:00,63.0,47.0,-100.00,SSW,209,2.0,10.0,55,0.00,,,0.00,165.000000,,2013-07-10 03:32:00,
2013-07-09 19:43:00,63.0,47.0,-100.00,SSW,209,2.0,10.0,55,0.00,,,0.00,165.000000,,2013-07-10 03:43:00,
2013-07-09 19:52:00,63.0,48.0,-100.00,South,184,2.0,10.0,57,0.00,,,-99.99,99.000000,,2013-07-10 03:52:00,
2013-07-09 20:11:00,63.0,48.0,-100.00,South,184,2.0,10.0,57,0.00,,,-99.99,99.000000,,2013-07-10 04:11:00,
2013-07-09 20:22:00,63.0,48.0,-100.00,South,184,2.0,10.0,57,0.00,,,-99.99,99.000000,,2013-07-10 04:22:00,
2013-07-09 20:32:00,63.0,48.0,-100.00,South,184,2.0,10.0,57,0.00,,,-99.99,99.000000,,2013-07-10 04:32:00,
2013-07-09 20:43:00,63.0,48.0,-100.00,South,184,2.0,10.0,57,0.00,,,-99.99,99.000000,,2013-07-10 04:43:00,
2013-07-09 20:52:00,60.0,45.0,-100.00,SSW,194,1.0,8.0,58,0.00,,,0.00,110.000000,,2013-07-10 04:52:00,
2013-07-09 21:22:00,60.0,45.0,-100.00,SSW,194,1.0,8.0,58,0.00,,,0.00,110.000000,,2013-07-10 05:22:00,
2013-07-09 21:32:00,60.0,45.0,-100.00,SSW,194,1.0,8.0,58,0.00,,,0.00,110.000000,,2013-07-10 05:32:00,
2013-07-09 21:42:00,60.0,45.0,-100.00,SSW,194,1.0,8.0,58,0.00,,,0.00,110.000000,,2013-07-10 05:42:00,
2013-07-09 21:52:00,57.0,47.0,-100.00,ESE,120,1.0,7.0,68,0.00,,,0.00,45.000000,,2013-07-10 05:52:00,
2013-07-09 22:11:00,57.0,47.0,-100.00,ESE,120,1.0,7.0,68,0.00,,,0.00,45.000000,,2013-07-10 06:11:00,
2013-07-09 22:21:00,57.0,47.0,-100.00,ESE,120,1.0,7.0,68,0.00,,,0.00,45.000000,,2013-07-10 06:21:00,
2013-07-09 22:32:00,57.0,47.0,-100.00,ESE,120,1.0,7.0,68,0.00,,,0.00,45.000000,,2013-07-10 06:32:00,
2013-07-09 22:42:00,57.0,47.0,-100.00,ESE,120,1.0,7.0,68,0.00,,,0.00,45.000000,,2013-07-10 06:42:00,
2013-07-09 22:52:00,52.0,46.0,-100.00,SE,143,0.0,3.0,81,0.00,,,0.00,10.000000,,2013-07-10 06:52:00,
2013-07-09 23:11:00,52.0,46.0,-100.00,SE,143,0.0,3.0,81,0.00,,,0.00,10.000000,,2013-07-10 07:11:00,
2013-07-09 23:22:00,52.0,46.0,-100.00,SE,143,0.0,3.0,81,0.00,,,0.00,10.000000,,2013-07-10 07:22:00,
2013-07-09 23:32:00,52.0,46.0,-100.00,SE,143,0.0,3.0,81,0.00,,,0.00,10.000000,,2013-07-10 07:32:00,
2013-07-09 23:43:00,52.0,46.0,-100.00,SE,143,0.0,3.0,81,0.00,,,0.00,10.000000,,2013-07-10 07:43:00,
2013-07-09 23:52:00,49.0,45.0,-100.00,ENE,63,0.0,3.0,86,0.00,,,0.00,3.000000,,2013-07-10 07:52:00,